Location: ????????
(55.0097°N, 38.5678°E)
Time: 04:31:14
(UTC+00:00)

Cosmos 2237 Rocket - Visible Passes

Search period start: 14 May 2025 00:00
Search period end: 24 May 2025 00:00
Orbit: 835 x 847 km, 71.0° (Epoch: 13 May)

Date Brightness Start Highest point End Pass type
(mag) Time Alt. Az. Time Alt. Az. Time Alt. Az.
14 May 5.1 19:46:44 10° NW 19:50:08 16° N 19:53:31 10° NNE visible
14 May 4.8 21:32:11 10° NNW 21:36:23 21° NNE 21:40:36 10° ENE visible
14 May 3.1 23:16:12 10° NNW 23:21:45 52° NE 23:27:16 10° SE visible
15 May 5.1 19:31:30 10° NW 19:34:54 16° N 19:38:19 10° NNE visible
15 May 4.8 21:17:01 10° NNW 21:21:11 21° NNE 21:25:21 10° ENE visible
15 May 3.2 23:01:03 10° NNW 23:06:34 51° NE 23:12:04 10° ESE visible
16 May 5.0 19:16:16 10° NW 19:19:41 16° N 19:23:06 10° NNE visible
16 May 4.8 21:01:51 10° NNW 21:05:58 20° NNE 21:10:05 10° ENE visible
16 May 3.2 22:45:54 10° NNW 22:51:23 49° NE 22:56:52 10° ESE visible
17 May 5.0 19:01:02 10° NW 19:04:27 16° N 19:07:54 10° NNE visible
17 May 4.8 20:46:40 10° NNW 20:50:45 20° NNE 20:54:50 10° ENE visible
17 May 3.2 22:30:45 10° NNW 22:36:13 47° NE 22:41:40 10° ESE visible
18 May 2.5 00:14:56 10° NW 00:20:18 45° WSW 00:25:39 10° S visible
18 May 5.0 18:45:47 10° NW 18:49:14 16° N 18:52:42 10° NNE visible
18 May 4.8 20:31:30 10° NNW 20:35:33 20° NNE 20:39:35 10° ENE visible
18 May 3.3 22:15:36 10° NNW 22:21:02 46° NE 22:26:28 10° ESE visible
18 May 2.5 23:59:46 10° NW 00:05:10 47° WSW 00:10:33 10° S visible
19 May 4.9 18:30:33 10° NW 18:34:01 16° N 18:37:30 10° NNE visible
19 May 4.8 20:16:20 10° NNW 20:20:20 19° NNE 20:24:20 10° ENE visible
19 May 3.3 22:00:26 10° NNW 22:05:51 44° NE 22:11:16 10° ESE visible
19 May 2.4 23:44:36 10° NW 23:50:02 49° WSW 23:55:26 10° S visible
20 May 4.7 20:01:10 10° NNW 20:05:08 19° NNE 20:09:05 10° ENE visible
20 May 3.4 21:45:17 10° NNW 21:50:41 43° NE 21:56:03 10° ESE visible
20 May 2.4 23:29:25 10° NW 23:34:53 51° WSW 23:40:20 10° S visible
21 May 4.7 19:45:59 10° NNW 19:49:55 19° NNE 19:53:50 10° ENE visible
21 May 3.4 21:30:08 10° NNW 21:35:30 42° NE 21:40:51 10° ESE visible
21 May 2.4 23:14:16 10° NW 23:19:45 53° WSW 23:25:14 10° S visible
22 May 4.7 19:30:49 10° NNW 19:34:42 18° NNE 19:38:35 10° ENE visible
22 May 3.4 21:14:59 10° NNW 21:20:19 40° NE 21:25:38 10° ESE visible
22 May 2.3 22:59:05 10° NW 23:04:37 56° WSW 23:10:07 10° SSE visible
23 May 4.7 19:15:38 10° NNW 19:19:29 18° NNE 19:23:19 10° ENE visible
23 May 3.5 20:59:50 10° NNW 21:05:08 39° NE 21:10:26 10° ESE visible
23 May 2.3 22:43:55 10° NW 22:49:28 58° WSW 22:55:00 10° SSE visible
